Location: Seasalter
(51.3333°N, 1.0167°E)
Time: 11:30:24
(UTC+00:00)

Cosmos 489 Rocket - Pass Details

Date: 26 September 2023
Orbit: 953 x 982 km, 74.0° (Epoch: 10 December)

Event Time Altitude Azimuth Distance (km) Brightness Sun altitude
Exits shadow 04:00:57 17° 209° (SSW) 2,285 6.0 -17.2°
Maximum altitude 04:06:05 81° 295° (WNW) 1,002 4.5 -16.4°
Drops below altitude 10° 04:12:28 10° 24° (NNE) 2,744 7.4 -15.5°
Sets 04:15:02 0° 25° (NNE) 3,693 8.2 -15.1°
